OBJECT A, 61894

Orbit data source: Space-Track

You're viewing an Uncataloged Satellite

Recently launched and/or uncataloged satellites may have evolving metadata. Metadata may include but not limited to: Owner, Maufacturer, Bus, Motor, and Mission.

OBJECT A, 61894 is a satellite owned by CASC (CN) in SSO that was launched on Mon, 11 Nov 2024 UTC via a LIJIAN-1 launch vehicle from the Jiuquan Satellite Launch Center, China (JSC). Unknown objects in Earth's orbit typically refer to objects detected orbiting the Earth but have not yet been identified or cataloged. These objects could be anything from previously untracked satellites, spent rocket stages, debris from satellite collisions, or even natural meteoroids temporarily captured by Earth's gravity.

Loading next visibility...
Identifier
61894, 2024-205A
Orbit
SSO
Last TLE update
8 hours ago
Origin
Flag of CNCASC (CN / PRC)
Manufacturer
SECM?
Mission
Operational Defense Technology
Bus & Motor
Unknown
Mass
~100 kg wet, ~100 kg dry
Launch date (UTC)
2024-11-11 (8 months ago)
Launch vehicle
LIJIAN-1
Launch site
Jiuquan Satellite Launch Center, China (JSC)
Object type
Unknown
Shape & HBR
Box + 2 Pan, 5 m
Radar Cross Section
4.795 m², Medium (>0.1 m² and < 1m²)

Expand to show TLE details & history

TLE from 8 hours ago
0 OBJECT A
1 61894U 24205A   25182.87021495  .00007710  00000-0  41765-3 0  9996
2 61894  97.4513 256.2209 0025662 165.3921 194.8059 15.14602112 35190
Epoch: 2025-07-01T20:53Z
TLE epoch observation values (Epoch: 2025-07-01T20:53:06.571Z)
Latitude
0.00002°
Longitude
22.78405°
Altitude
542.395 km
Speed
7.582 km/s
True Right ascension
17h 04m 53s
True Declination
0° 00' 00"
Sunlit
Object was in full shadow at epoch
Visualization orbit readout
Latitude
75.07441°
Longitude
-6.08528°
Altitude
534.113 km
Speed
7.603 km/s
Apparent Right ascension
05h 43m 00s
Apparent Declination
37° 29' 05"
Sunlit
Object is in daylight
Visualization observer readout
Local Sidereal Time
16:50:40
Azimuth
349.429° N
Elevation
-11.673°
Doppler factor
1
Orbital elements
Apogee altitude
536.862 km
Perigee altitude
501.462 km
Semi-major axis
6,897.299 km
Eccentricity
0.00257
Inclination
97.4513°
RAAN
256.2209°
Arg. of periapsis
165.3921°
True anomaly
Unknown
Mean anomaly
194.8059°
Eccentric anomaly
Unknown
Mean motion
3.789 °/min
Orbital period
95.01 mins
BSTAR
0.00041765
Loading maneuver chart data...
Loading SW <> Apogee altitude chart data...
Loading historical data...
Loading historical data...
Loading historical data...
Loading historical data...
Loading historical data...
Loading historical data...
Loading historical data...

OBJECT A Visibility forecast

Observer location: undefined°, undefined°

Span
Click to sort rows by Start time (UTC) header in descending order
Start Az.
Max El. time (UTC)
Max El. Az.
Max El.
End time (UTC)
End Az.
6 mins2025-07-02 18:03:08.708Z1.272° NNE2025-07-02 18:06:08.708Z311.024° NW37.259°2025-07-02 18:09:08.708Z212.965° SW
6 mins2025-07-03 04:44:08.708Z150.574° SSE2025-07-03 04:46:08.708Z111.854° ESE39.274°2025-07-03 04:50:08.708Z356.108° N
|